Location: Newark
(41.8083°N, 72.2500°W)
Time: 21:12:24
(UTC+00:00)

Courier 1B - Pass Details

Date: 07 December 2021
Orbit: 962 x 1209 km, 28.3° (Epoch: 19 January)

Event Time Altitude Azimuth Distance (km) Brightness Sun altitude
Rises 18:08:21 0° 203° (SSW) 4,098 12.3 22.4°
Reaches altitude 10° 18:13:29 10° 175° (S) 3,130 11.4 22.0°
Maximum altitude 18:16:14 12° 154° (SSE) 2,957 10.7 21.8°
Drops below altitude 10° 18:18:59 10° 133° (SE) 3,105 10.4 21.6°
Sets 18:23:59 0° 105° (ESE) 4,029 10.6 21.2°
